STARLINK-31432, 59932

Orbit data source: Space-Track

STARLINK-31432, 59932 is a payload satellite owned by SpaceX/Seattle (US) in LEO that was launched on Sat, 01 Jun 2024 UTC via an FALCON 9 launch vehicle from the Air Force Eastern Test Range (AFETR). Payload-class satellites include a variety of spacecraft equipped with specific instruments for various scientific and technological missions. These include communications satellites like Starlink; space stations such as the ISS; scientific satellites like the Hubble; Earth observation satellites from companies like Planet Labs, Umbra, and HawkEye 360; GPS; miniature CubeSats for education and research; and military/defense satellites.

Loading next visibility...
Identifier
59932, 2024-106L
Orbit
LEO
Last TLE update
13 hours ago
Origin
Manufacturer
SpaceX/Seattle
Mission
Operational spacecraft
Bus & Motor
STARLINK V2M, Unknown motor
Mass
730 kg wet, ~700 kg dry
Launch date (UTC)
2024-06-01 (1 year ago)
Launch vehicle
FALCON 9
Launch site
Air Force Eastern Test Range (AFETR)
Object type
Payload
Rocket body
Debris
Shape & HBR
Unknown
Radar Cross Section
Large (>1 m²)

Expand to show TLE details & history

TLE from 13 hours ago
0 STARLINK-31432
1 59932U 24106L   25200.08858248  .00034282  00000-0  12492-2 0  9992
2 59932  43.0049 212.0372 0001546 250.0201 110.0484 15.27588629 64789
Epoch: 2025-07-19T02:07Z
TLE epoch observation values (Epoch: 2025-07-19T02:07:33.526Z)
Latitude
-0.00003°
Longitude
-116.98323°
Altitude
483.163 km
Speed
7.625 km/s
True Right ascension
14h 08m 08s
True Declination
0° 00' 00"
Sunlit
Object was in daylight at epoch
Visualization orbit readout
Latitude
13.06103°
Longitude
-105.63676°
Altitude
482.552 km
Speed
7.627 km/s
Apparent Right ascension
15h 11m 27s
Apparent Declination
-12° 22' 14"
Sunlit
Object is in daylight
Visualization observer readout
Local Sidereal Time
03:35:57
Azimuth
12.789° NNE
Elevation
-61.93°
Doppler factor
1
Orbital elements
Apogee altitude
486.029 km
Perigee altitude
483.907 km
Semi-major axis
6,863.105 km
Eccentricity
0.00015
Inclination
43.0049°
RAAN
212.0372°
Arg. of periapsis
250.0201°
True anomaly
110.06504°
Mean anomaly
110.0484°
Eccentric anomaly
110.05672°
Mean motion
3.81735 °/min
Orbital period
94.31 mins
BSTAR
0.0012492
Loading maneuver chart data...
Loading SW <> Apogee altitude chart data...
Loading historical data...
Loading historical data...
Loading historical data...
Loading historical data...
Loading historical data...
Loading historical data...
Loading historical data...
|